Location: Torch Lake Township
(45.0753°N, 85.3586°W)
Time: 19:31:09
(UTC-04:00)

Amateur Radio Satellites - All Passes

Search period start: 01 September 2014 19:01
Search period end: 02 September 2014 19:01
Location: Torch Lake Township, 45.0753°N, 85.3586°W

Satellite Date Start Highest point End Downlink Frequencies (MHz)
Time Altitude Azimuth
Sapphire 01 Sep 19:03:41 19:08:32 33° 314° (NW) 19:13:26 437.095 MHz 1200 baud AX-25 AFSK
RS-15 01 Sep 19:12:00 19:21:29 35° 254° (WSW) 19:31:19 29.354 - 29.394 USB, Beacon 29.352 USB
JAS-2 01 Sep 19:21:48 19:27:40 51° 260° (W) 19:32:59 435.800 - 435.900 CW/SSB, 435.910 FM
AO-7 01 Sep 19:33:30 19:35:37 11° 276° (W) 19:37:44 29.400 - 29.500 MHz
PCSat 01 Sep 19:34:10 19:38:15 21° 321° (NW) 19:42:22 145.825 MHz
SO-67 01 Sep 19:42:26 19:45:48 51° 74° (ENE) 19:49:11 435.3500 MHz FM
Hamsat 01 Sep 20:17:36 20:19:01 11° 272° (W) 20:20:27 145.90 MHz
OPAL 01 Sep 20:19:54 20:22:27 14° 307° (NW) 20:25:01 ?
STRAND 1 01 Sep 20:26:16 20:31:20 61° 102° (ESE) 20:36:23 ?
HO-68 01 Sep 20:49:37 20:56:10 41° 62° (ENE) 21:02:43 435.675 MHz FM
SO-67 01 Sep 21:18:34 21:19:10 10° 271° (W) 21:19:46 435.3500 MHz FM
MaSat-1 01 Sep 21:31:07 21:33:43 15° 40° (NE) 21:36:10 437.345 MHz
STRAND 1 01 Sep 22:06:28 22:10:04 20° 300° (WNW) 22:13:40 ?
UKube-1 01 Sep 22:10:09 22:14:29 79° 74° (ENE) 22:18:51 145.840 MHz, 145.915 MHz
Oscar 11 01 Sep 22:14:04 22:18:17 54° 72° (ENE) 22:22:33 145.825 FM, Beacon 2401.500 USB
HO-68 01 Sep 22:37:04 22:43:48 44° 261° (W) 22:50:35 435.675 MHz FM
Saudisat 1A 01 Sep 22:44:43 22:48:41 34° 117° (ESE) 22:52:41 436.775 MHz
FUNcube-1 01 Sep 22:45:59 22:49:59 45° 71° (ENE) 22:54:06 145.950 - 145.970 MHz USB
MaSat-1 01 Sep 23:06:57 23:11:36 86° 62° (ENE) 23:15:36 437.345 MHz
AO-40 01 Sep 23:11:39 04:53:52 36° 167° (SSE) 06:43:42 Beacon 2401.320
KITSAT 1 01 Sep 23:27:33 23:34:50 39° 110° (ESE) 23:42:08 435.175 FM
UKube-1 01 Sep 23:50:26 23:51:15 10° 272° (W) 23:52:04 145.840 MHz, 145.915 MHz
Oscar 11 01 Sep 23:52:11 23:54:49 16° 270° (W) 23:57:27 145.825 FM, Beacon 2401.500 USB
Sapphire 02 Sep 00:23:25 00:26:20 14° 32° (NNE) 00:29:15 437.095 MHz 1200 baud AX-25 AFSK
FUNcube-1 02 Sep 00:23:51 00:26:40 17° 269° (W) 00:29:31 145.950 - 145.970 MHz USB
Saudisat 1A 02 Sep 00:24:16 00:28:16 33° 316° (NW) 00:32:18 436.775 MHz
PCSat 02 Sep 00:52:05 00:56:12 21° 39° (NE) 01:00:17 145.825 MHz
KITSAT 1 02 Sep 01:22:02 01:29:58 57° 311° (NW) 01:37:57 435.175 FM
Sapphire 02 Sep 02:05:37 02:10:59 57° 54° (NE) 02:16:19 437.095 MHz 1200 baud AX-25 AFSK
PCSat 02 Sep 02:34:50 02:40:18 83° 240° (WSW) 02:45:43 145.825 MHz
Oscar 19 02 Sep 02:38:32 02:43:08 31° 95° (E) 02:47:42 437.125 CW, 437.150 USB
AO-Echo 02 Sep 02:48:09 02:51:13 17° 91° (E) 02:54:18 ?
Oscar 16 02 Sep 03:13:29 03:18:41 66° 102° (ESE) 03:23:50 437.025 USB, Beacon 2401.1428
ITAMSAT 1 02 Sep 03:16:18 03:20:51 30° 95° (E) 03:25:23 435.822 SSB
Oscar 10/S400 02 Sep 03:16:27 04:21:32 39° 223° (SW) 09:24:40 145.825 - 145.975 CW/USB, Beacon 145.810 USB
KITSAT 1 02 Sep 03:21:22 03:27:20 22° 337° (NNW) 03:33:18 435.175 FM
SO-50 02 Sep 03:24:33 03:27:57 22° 112° (ESE) 03:31:25 436.795 FM
Uribyol 2 02 Sep 03:25:27 03:30:18 38° 98° (E) 03:35:08 436.500 FM
JAS-1B 02 Sep 03:31:13 03:37:26 39° 95° (E) 03:42:53 435.800 - 435.900 CW/SSB
TMSAT-1 02 Sep 03:38:44 03:42:11 17° 90° (E) 03:45:38 436.925 FM
AO-27 02 Sep 03:45:39 03:50:46 56° 101° (E) 03:55:52 436.795 MHz FM
Sapphire 02 Sep 03:49:47 03:54:00 24° 252° (WSW) 03:58:13 437.095 MHz 1200 baud AX-25 AFSK
Oscar 19 02 Sep 04:17:46 04:22:31 37° 293° (WNW) 04:27:14 437.125 CW, 437.150 USB
OPAL 02 Sep 04:18:09 04:22:37 32° 63° (ENE) 04:27:08 ?
PCSat 02 Sep 04:20:47 04:22:50 12° 258° (WSW) 04:24:52 145.825 MHz
AO-Echo 02 Sep 04:25:46 04:30:22 55° 288° (WNW) 04:34:58 ?
Gurwin Techsat 1B 02 Sep 04:27:20 04:32:37 62° 101° (ESE) 04:37:52 435.225 FM
Oscar 16 02 Sep 04:53:56 04:57:32 19° 300° (WNW) 05:01:07 437.025 USB, Beacon 2401.1428
ITAMSAT 1 02 Sep 04:55:39 05:00:24 38° 293° (WNW) 05:05:09 435.822 SSB
SO-50 02 Sep 05:03:48 05:08:10 50° 311° (NW) 05:12:40 436.795 FM
Uribyol 2 02 Sep 05:05:10 05:09:39 30° 295° (WNW) 05:14:08 436.500 FM
UOSAT-12 02 Sep 05:10:30 05:13:57 21° 112° (ESE) 05:17:27 437.025 FM, 437.400 FM
TMSAT-1 02 Sep 05:17:20 05:22:36 67° 288° (WNW) 05:27:50 436.925 FM
Uosat F 02 Sep 05:18:38 05:22:49 26° 95° (E) 05:27:00 435.120 FM
KITSAT 1 02 Sep 05:21:26 05:26:21 17° 7° (N) 05:31:14 435.175 FM
JAS-1B 02 Sep 05:21:58 05:28:03 36° 299° (WNW) 05:33:25 435.800 - 435.900 CW/SSB
AO-27 02 Sep 05:26:00 05:29:54 22° 299° (WNW) 05:33:47 436.795 MHz FM
Saudisat 1A 02 Sep 05:31:10 05:32:55 12° 28° (NNE) 05:34:40 436.775 MHz
AO-7 02 Sep 05:32:11 05:39:57 42° 99° (E) 05:47:40 29.400 - 29.500 MHz
OPAL 02 Sep 05:56:44 06:01:24 37° 261° (W) 06:06:10 ?
STRAND 1 02 Sep 06:07:43 06:10:46 16° 58° (ENE) 06:13:50 ?
Gurwin Techsat 1B 02 Sep 06:08:18 06:12:07 21° 300° (WNW) 06:15:57 435.225 FM
Hamsat 02 Sep 06:24:13 06:25:47 12° 88° (E) 06:27:22 145.90 MHz
JAS-2 02 Sep 06:29:03 06:32:14 16° 91° (E) 06:35:33 435.800 - 435.900 CW/SSB, 435.910 FM
SO-50 02 Sep 06:47:51 06:49:51 13° 333° (NNW) 06:51:53 436.795 FM
UOSAT-12 02 Sep 06:49:11 06:53:44 55° 310° (NW) 06:58:23 437.025 FM, 437.400 FM
Uosat F 02 Sep 06:57:04 07:01:44 40° 292° (WNW) 07:06:23 435.120 FM
TMSAT-1 02 Sep 07:00:20 07:01:31 11° 306° (NW) 07:02:43 436.925 FM
Saudisat 1A 02 Sep 07:09:12 07:13:32 51° 49° (NE) 07:17:50 436.775 MHz
KITSAT 1 02 Sep 07:17:39 07:24:46 32° 36° (NE) 07:31:49 435.175 FM
AO-7 02 Sep 07:24:59 07:32:51 50° 299° (WNW) 07:40:41 29.400 - 29.500 MHz
RS-15 02 Sep 07:26:00 07:35:38 37° 107° (ESE) 07:45:08 29.354 - 29.394 USB, Beacon 29.352 USB
STRAND 1 02 Sep 07:44:15 07:49:21 77° 257° (WSW) 07:54:28 ?
Hamsat 02 Sep 07:57:55 08:02:16 71° 285° (WNW) 08:06:33 145.90 MHz
JAS-2 02 Sep 08:12:36 08:17:51 71° 287° (WNW) 08:23:30 435.800 - 435.900 CW/SSB, 435.910 FM
UOSAT-12 02 Sep 08:32:34 08:34:56 14° 332° (NNW) 08:37:20 437.025 FM, 437.400 FM
SO-67 02 Sep 08:37:08 08:40:30 46° 99° (E) 08:43:50 435.3500 MHz FM
Saudisat 1A 02 Sep 08:49:31 08:52:47 21° 247° (WSW) 08:56:02 436.775 MHz
KITSAT 1 02 Sep 09:12:56 09:21:03 81° 240° (WSW) 09:29:06 435.175 FM
AO-7 02 Sep 09:20:08 09:23:41 14° 321° (NW) 09:27:14 29.400 - 29.500 MHz
RS-15 02 Sep 09:36:12 09:47:13 71° 310° (NW) 09:58:10 29.354 - 29.394 USB, Beacon 29.352 USB
ISS 02 Sep 09:48:42 09:50:33 14° 133° (SE) 09:52:25 145.800 FM
UKube-1 02 Sep 09:58:43 10:00:10 11° 89° (E) 10:01:36 145.840 MHz, 145.915 MHz
JAS-2 02 Sep 10:01:02 10:02:08 11° 305° (NW) 10:03:14 435.800 - 435.900 CW/SSB, 435.910 FM
HO-68 02 Sep 10:02:15 10:08:37 34° 96° (E) 10:14:58 435.675 MHz FM
SO-67 02 Sep 10:11:40 10:13:09 12° 296° (WNW) 10:14:38 435.3500 MHz FM
SO-50 02 Sep 10:14:14 10:15:39 11° 24° (NNE) 10:17:04 436.795 FM
KITSAT 1 02 Sep 11:10:17 11:15:12 18° 259° (W) 11:20:06 435.175 FM
ISS 02 Sep 11:23:32 11:26:52 88° 332° (NNW) 11:30:12 145.800 FM
UKube-1 02 Sep 11:32:31 11:36:52 73° 286° (WNW) 11:41:12 145.840 MHz, 145.915 MHz
Oscar 11 02 Sep 11:35:39 11:40:04 84° 103° (ESE) 11:44:25 145.825 FM, Beacon 2401.500 USB
HO-68 02 Sep 11:49:41 11:56:34 52° 295° (WNW) 12:03:26 435.675 MHz FM
RS-15 02 Sep 11:52:31 12:01:54 31° 340° (NNW) 12:11:23 29.354 - 29.394 USB, Beacon 29.352 USB
SO-50 02 Sep 11:53:02 11:57:31 39° 46° (NE) 12:02:04 436.795 FM
UOSAT-12 02 Sep 11:58:55 11:59:53 11° 22° (NNE) 12:00:52 437.025 FM, 437.400 FM
FUNcube-1 02 Sep 12:08:51 12:13:25 77° 102° (ESE) 12:18:02 145.950 - 145.970 MHz USB
JAS-1B 02 Sep 12:31:17 12:35:11 14° 46° (NE) 12:38:53 435.800 - 435.900 CW/SSB
Oscar 16 02 Sep 12:55:34 12:58:53 18° 59° (ENE) 13:02:13 437.025 USB, Beacon 2401.1428
MaSat-1 02 Sep 12:56:31 13:00:41 28° 106° (ESE) 13:05:00 437.345 MHz
ISS 02 Sep 13:00:57 13:03:55 29° 349° (N) 13:06:53 145.800 FM
Uribyol 2 02 Sep 13:10:25 13:11:51 11° 54° (NE) 13:13:18 436.500 FM
Oscar 11 02 Sep 13:14:02 13:15:35 12° 301° (WNW) 13:17:08 145.825 FM, Beacon 2401.500 USB
AO-27 02 Sep 13:29:10 13:32:12 16° 58° (ENE) 13:35:14 436.795 MHz FM
SO-50 02 Sep 13:33:46 13:38:02 32° 244° (WSW) 13:42:20 436.795 FM
UOSAT-12 02 Sep 13:37:04 13:41:27 36° 45° (NE) 13:45:46 437.025 FM, 437.400 FM
HO-68 02 Sep 13:40:09 13:42:42 12° 316° (NW) 13:45:14 435.675 MHz FM
FUNcube-1 02 Sep 13:46:59 13:49:14 14° 300° (WNW) 13:51:29 145.950 - 145.970 MHz USB
Oscar 19 02 Sep 13:57:13 14:02:14 54° 71° (ENE) 14:07:19 437.125 CW, 437.150 USB
AO-Echo 02 Sep 14:02:41 14:06:57 30° 66° (ENE) 14:11:07 ?
RS-15 02 Sep 14:09:25 14:18:40 30° 16° (NNE) 14:28:04 29.354 - 29.394 USB, Beacon 29.352 USB
Gurwin Techsat 1B 02 Sep 14:12:57 14:16:27 18° 59° (ENE) 14:19:58 435.225 FM
JAS-1B 02 Sep 14:14:57 14:24:04 52° 66° (ENE) 14:32:06 435.800 - 435.900 CW/SSB
Oscar 16 02 Sep 14:32:30 14:37:39 73° 257° (WSW) 14:42:52 437.025 USB, Beacon 2401.1428
MaSat-1 02 Sep 14:32:39 14:37:28 46° 304° (NW) 14:42:26 437.345 MHz
ITAMSAT 1 02 Sep 14:36:11 14:41:13 56° 71° (ENE) 14:46:17 435.822 SSB
ISS 02 Sep 14:38:20 14:41:17 28° 10° (N) 14:44:14 145.800 FM
AO-7 02 Sep 14:44:46 14:49:55 18° 44° (NE) 14:55:03 29.400 - 29.500 MHz
Uribyol 2 02 Sep 14:45:17 14:50:24 71° 73° (ENE) 14:55:34 436.500 FM
TMSAT-1 02 Sep 15:01:05 15:05:46 33° 66° (ENE) 15:10:28 436.925 FM
AO-27 02 Sep 15:05:53 15:11:04 81° 256° (WSW) 15:16:16 436.795 MHz FM
UOSAT-12 02 Sep 15:17:18 15:21:36 35° 244° (WSW) 15:25:50 437.025 FM, 437.400 FM
Oscar 19 02 Sep 15:38:05 15:41:55 21° 268° (W) 15:45:47 437.125 CW, 437.150 USB
AO-Echo 02 Sep 15:41:06 15:45:38 35° 263° (W) 15:50:06 ?
Gurwin Techsat 1B 02 Sep 15:50:34 15:55:51 72° 257° (WSW) 16:01:11 435.225 FM
JAS-1B 02 Sep 16:05:26 16:14:34 45° 263° (W) 16:22:46 435.800 - 435.900 CW/SSB
MaSat-1 02 Sep 16:14:35 16:15:46 11° 325° (NW) 16:16:58 437.345 MHz
ISS 02 Sep 16:15:01 16:18:21 82° 29° (NNE) 16:21:41 145.800 FM
ITAMSAT 1 02 Sep 16:17:19 16:21:04 20° 268° (W) 16:24:50 435.822 SSB
RS-15 02 Sep 16:22:51 16:33:47 62° 46° (NE) 16:45:06 29.354 - 29.394 USB, Beacon 29.352 USB
Uribyol 2 02 Sep 16:27:23 16:30:25 16° 270° (W) 16:33:28 436.500 FM
AO-7 02 Sep 16:33:00 16:41:14 67° 66° (ENE) 16:49:27 29.400 - 29.500 MHz
Uosat F 02 Sep 16:33:41 16:38:26 45° 69° (ENE) 16:43:12 435.120 FM
TMSAT-1 02 Sep 16:40:49 16:45:38 35° 264° (W) 16:50:29 436.925 FM
Sapphire 02 Sep 16:49:50 16:54:38 34° 111° (ESE) 16:59:28 437.095 MHz 1200 baud AX-25 AFSK
AO-27 02 Sep 16:50:51 16:51:23 10° 274° (W) 16:51:56 436.795 MHz FM
PCSat 02 Sep 17:18:19 17:23:38 62° 117° (ESE) 17:29:00 145.825 MHz
Hamsat 02 Sep 17:20:00 17:21:47 12° 60° (ENE) 17:23:35 145.90 MHz
ISS 02 Sep 17:52:37 17:54:42 16° 226° (SW) 17:56:46 145.800 FM
OPAL 02 Sep 18:04:03 18:09:08 49° 102° (ESE) 18:14:09 ?
Uosat F 02 Sep 18:13:27 18:17:25 24° 266° (W) 18:21:25 435.120 FM
JAS-2 02 Sep 18:26:47 18:32:36 60° 72° (ENE) 18:37:54 435.800 - 435.900 CW/SSB, 435.910 FM
AO-7 02 Sep 18:27:31 18:34:34 30° 266° (W) 18:41:39 29.400 - 29.500 MHz
Sapphire 02 Sep 18:32:51 18:37:58 41° 310° (NW) 18:43:07 437.095 MHz 1200 baud AX-25 AFSK
RS-15 02 Sep 18:35:37 18:45:50 45° 250° (WSW) 18:56:27 29.354 - 29.394 USB, Beacon 29.352 USB
